SL-8 R/B (21088 NORAD) Tracking and Keplerian Element Data

This shows tracking and keplerian element data for the satellite.

Feedback or suggestion? Click here.




ElementValue
Catalog21088
NameSL-8 R/B
Epoch Orbit55569
Epoch Day15.92223719
Epoch Year2022
RAAN215.8607
Inclination82.9411
Eccentricity0.0021791
Argument of Perigee316.7085
Mean Anonmoly153.2528
Mean Motion13.77189912
Decay Rate-5.4E-07
L11 21088U 91006B 22015.92223719 -.00000054 00000+0 -69599-4 0 9992
L22 21088 82.9411 215.8607 0021791 316.7085 153.2528 13.77189912555699

Live tracking and technical data element details for SL-8 R/B (NORAD 21088). SL-8 R/B can be tracked NOW for your location showing map with azimuth and elevation plus other details from your city location.

Track the satellite on the map from your city or location and see movement details for azimuth, elevation, latitude, longitude, range, height, and movement on the map or in text.







IsCatalogInMostPopularTable: catalog: 21088, numindb: 310
Update: records affected: 1



GetName: 21088 SL-8 R/B

Hit Count: updated at: Mon, 17 Jan 2022 00:16:50 GMT